Overview Statistics Trail Chart Weather Telemetry Raw packets
 

This is the latest recevied weather packets stored in our database for station/object 4S6DRJ-13. If no packets are shown the sender has not sent any weather packets the latest 10 day(s).

<< 121 122 123 124 125 126 127 >>
Time Temp. Humidity Pressure Rain* Wind** Luminosity Snow
1788276025 28.33° C 82% 1010.6 hPa 0 mm 1.34 m/s, 207° 0 W/m² -
1788275956 28.33° C 82% 1010.5 hPa 0 mm 1.34 m/s, 234° 0 W/m² -
1788275895 28.33° C 82% 1010.8 hPa 0 mm 0.89 m/s, 229° 0 W/m² -
1788275834 28.33° C 82% 1010.8 hPa 0 mm 1.34 m/s, 227° 0 W/m² -
1788275773 28.33° C 82% 1010.7 hPa 0 mm 0.89 m/s, 219° 0 W/m² -
1788275712 28.33° C 82% 1010.7 hPa 0 mm 0.45 m/s, 255° 0 W/m² -
1788275651 28.33° C 82% 1010.9 hPa 0 mm 1.34 m/s, 217° 0 W/m² -
1788275590 28.33° C 82% 1010.7 hPa 0 mm 1.34 m/s, 253° 0 W/m² -
1788275529 28.33° C 82% 1010.8 hPa 0 mm 1.34 m/s, 186° 0 W/m² -
1788275468 28.33° C 82% 1010.9 hPa 0 mm 1.34 m/s, 226° 0 W/m² -
1788275407 28.33° C 82% 1010.8 hPa 0 mm 2.24 m/s, 231° 0 W/m² -
1788275346 28.33° C 82% 1010.7 hPa 0 mm 1.34 m/s, 259° 0 W/m² -
1788275285 28.33° C 82% 1010.7 hPa 0 mm 1.79 m/s, 136° 0 W/m² -
1788275225 28.33° C 82% 1010.7 hPa 0 mm 0.89 m/s, 257° 0 W/m² -
1788275163 28.33° C 82% 1010.7 hPa 0 mm 1.79 m/s, 208° 0 W/m² -
1788275102 28.33° C 82% 1010.8 hPa 0 mm 0.89 m/s, 259° 0 W/m² -
1788275041 28.33° C 82% 1010.8 hPa 0 mm 0.89 m/s, 171° 0 W/m² -
1788274980 28.33° C 82% 1010.6 hPa 0 mm 0.89 m/s, 229° 0 W/m² -
1788274919 28.33° C 82% 1010.7 hPa 0 mm 0.89 m/s, 241° 0 W/m² -
1788274858 28.33° C 82% 1010.7 hPa 0 mm 1.34 m/s, 260° 0 W/m² -
1788274797 28.33° C 82% 1010.6 hPa 0 mm 0.89 m/s, 242° 0 W/m² -
1788274736 28.33° C 82% 1010.6 hPa 0 mm 2.68 m/s, 206° 0 W/m² -
1788274675 28.33° C 82% 1010.6 hPa 0 mm 0.89 m/s, 237° 0 W/m² -
1788274614 28.33° C 82% 1010.6 hPa 0 mm 1.34 m/s, 205° 0 W/m² -
1788274553 28.33° C 82% 1010.4 hPa 0 mm 1.34 m/s, 219° 0 W/m² -

* Rain latest hour (hover to see other rain measurements)
** Current wind speed in m/s (hover to see current wind gust speed)